Observations for Trim Patrick St
| Time | AQI | Temp °C | Hum % | Pres Pa | CO μg/m³ | H₂S μg/m³ | NO μg/m³ | NO₂ μg/m³ | O₃ μg/m³ | SO₂ μg/m³ | PM1 μg/m³ | PM2.5 μg/m³ | PM10 μg/m³ |
|---|---|---|---|---|---|---|---|---|---|---|---|---|---|
| Thursday 6 August 2026 | |||||||||||||
| 10:12 | 1 | 22.2 | 52 | 69,589 | 0 | 0 | 2.85 | 3.5 | 47.2 | 4.62 | 2 | 7.07 | 7.77 |
| 10:11 | 1 | 22.1 | 53 | 69,652 | 0 | 0 | 2.92 | 3.26 | 44.49 | 3.59 | 2.86 | 8.52 | 9.37 |
| 10:10 | 1 | 22 | 54 | 69,732 | 0 | 0 | 2.96 | 2.92 | 60.11 | 5.08 | 3.71 | 8.4 | 9.24 |
| 10:09 | 1 | 21.9 | 54 | 69,844 | 0 | 0 | 3 | 2.95 | 59.23 | 4.04 | 2.86 | 8.46 | 9.31 |
| 10:07 | 1 | 21.7 | 52 | 69,930 | 0 | 0 | 3.09 | 4.74 | 59.07 | 4.41 | 2 | 7.02 | 7.72 |
| 10:06 | 1 | 21.7 | 52 | 69,871 | 0 | 0 | 3.13 | 2.5 | 46.57 | 3.8 | 2 | 7.05 | 7.75 |
| 10:05 | 1 | 21.7 | 52 | 69,877 | 0 | 0 | 3.05 | 2.67 | 42.09 | 4.12 | 2.86 | 7.04 | 7.74 |
| 10:03 | 1 | 21.7 | 52 | 69,877 | 0 | 0 | 3.04 | 2.67 | 47.45 | 4.27 | 2 | 6.31 | 6.94 |
| 10:02 | 1 | 21.8 | 54 | 69,893 | 0 | 0 | 3.16 | 3.05 | 54.44 | 4.59 | 2 | 6.94 | 7.64 |
| 10:01 | 1 | 21.8 | 54 | 69,885 | 0 | 0 | 3.14 | 6.57 | 51.17 | 4.68 | 2 | 6.19 | 6.8 |
| 10:00 | 1 | 21.9 | 51 | 69,901 | 0 | 0 | 2.92 | 2.05 | 42.49 | 4.26 | 2 | 6.37 | 7.01 |
| 09:59 | 1 | 22 | 51 | 69,895 | 0 | 0 | 2.91 | 2.53 | 51.53 | 5.37 | 2 | 6.37 | 7.01 |
| 09:58 | 1 | 22 | 51 | 69,940 | 0 | 0 | 2.97 | 2.36 | 35.51 | 3.95 | 2 | 6.35 | 6.99 |
| 09:57 | 1 | 22.1 | 52 | 69,950 | 0 | 0 | 3.36 | 1.65 | 40.18 | 4.18 | 2 | 6.26 | 6.88 |
| 09:56 | 1 | 22.2 | 51 | 70,017 | 0 | 0 | 3.05 | 1.47 | 46.7 | 5.13 | 2 | 6.34 | 6.97 |
| 09:55 | 1 | 22.3 | 51 | 70,081 | 0 | 0 | 3.14 | 3.05 | 39.89 | 4.48 | 2 | 6.32 | 6.96 |
| 09:54 | 1 | 22.3 | 53 | 70,160 | 0 | 0 | 3.23 | 2.11 | 44.01 | 4.56 | 2 | 6.24 | 6.87 |
| 09:50 | 1 | 22.6 | 52 | 70,808 | 0.04 | 0 | 3 | 2.82 | 19.51 | 4.8 | 2 | 7.05 | 7.76 |
| 09:49 | 1 | 22.6 | 53 | 71,126 | 0.07 | 0 | 3.24 | 6.7 | 24.11 | 4.97 | 2 | 6.99 | 7.69 |
| 09:48 | 1 | 22.5 | 52 | 71,373 | 0.07 | 0 | 3.01 | 1.33 | 6.45 | 6 | 3.71 | 8.59 | 9.44 |